Date String (YYYY-MM-DD hh:mm:ss) UTC,Instrument flags,absolute air pressure of the measurement (hPa),sample flow rate (lpm),inlet stack bypass flow (lpm),air temperature of the measurement (°C),ambient temperature measured by the external sensor (°C),aerosol sample conditioner tube jacket temperature (°C),OPC LED temperature (°C),internal box temperature (°C),relative humidity of the measurement (%),span deviation,mass concentration of particles derived from Lorenz-Mie calculation of OPC scattering (μg/m³),mass concentration of particles derived from Lorenz-Mie calculation of OPC scattering (μg/m³),mass concentration of particles derived from Lorenz-Mie calculation of OPC scattering (μg/m³)
DateTimeUTC,F1_M11,P_M11,Q1_M11,Q2_M11,T1_M11,T2_M11,T3_M11,T4_M11,T5_M11,U1_M11,ZSPAN_M11,X0_M11,X2_M11,X1_M11
2023-09-12 21:00:00,SystemResetWarning,0832.2,5.01,000.00,028.0,025.9,000.0,036.4,029.6,23.7,0000.0,0007.90,0004.65,0004.32
2023-09-12 21:01:00,SystemResetWarning,0832.2,5.02,000.00,028.1,026.3,000.0,036.4,029.7,24.1,0000.0,0008.01,0004.67,0004.34
2023-09-12 21:02:00,SystemResetWarning,0832.1,4.99,000.00,028.1,026.6,000.0,036.4,029.7,23.4,0000.0,0008.06,0004.72,0004.38
2023-09-12 21:03:00,SystemResetWarning,0832.2,5.00,000.00,028.1,026.8,000.0,036.4,029.8,23.1,0000.0,0008.07,0004.74,0004.40
2023-09-12 21:04:00,SystemResetWarning,0832.2,5.00,000.00,028.2,027.1,000.0,036.5,029.9,22.9,0000.0,0008.12,0004.74,0004.43
2023-09-12 21:05:00,SystemResetWarning,0832.2,5.00,000.00,028.2,027.3,000.0,036.5,030.0,22.4,-000.0,0008.12,0004.74,0004.44
2023-09-12 21:06:00,SystemResetWarning,0832.2,5.01,000.00,028.3,027.4,000.0,036.5,030.0,22.3,0000.3,0008.09,0004.74,0004.46
2023-09-12 21:07:00,SystemResetWarning,0832.2,4.98,000.00,028.3,026.8,000.0,036.5,030.0,21.4,0000.2,0007.92,0004.77,0004.50
2023-09-12 21:08:00,SystemResetWarning,0832.2,5.00,000.00,028.3,025.1,000.0,036.4,029.6,21.5,0000.0,0007.82,0004.80,0004.53
2023-09-12 21:09:00,SystemResetWarning,0832.2,5.01,000.00,028.2,024.3,000.0,036.3,029.4,21.9,-000.3,0007.78,0004.77,0004.54
2023-09-12 21:10:00,SystemResetWarning,0832.1,5.01,000.00,028.1,024.4,000.0,036.3,029.4,22.7,-000.7,0007.68,0004.74,0004.53
2023-09-12 21:11:00,SystemResetWarning,0832.1,4.98,000.00,028.0,024.8,000.0,036.3,029.4,24.5,-001.1,0007.65,0004.73,0004.51
2023-09-12 21:12:00,SystemResetWarning,0832.1,5.00,000.00,028.0,025.2,000.0,036.4,029.4,24.1,-001.2,0007.79,0004.71,0004.49
2023-09-12 21:13:00,SystemResetWarning,0832.1,5.02,000.00,028.0,025.6,000.0,036.4,029.5,24.8,-001.1,0007.89,0004.67,0004.47
2023-09-12 21:14:00,SystemResetWarning,0832.1,5.00,000.00,028.0,026.0,000.0,036.4,029.6,24.9,-001.2,0007.95,0004.67,0004.45
2023-09-12 21:15:00,SystemResetWarning,0832.2,4.99,000.00,028.1,026.4,000.0,036.4,029.7,24.5,-001.3,0008.02,0004.69,0004.43
2023-09-12 21:16:00,SystemResetWarning,0832.2,5.00,000.00,028.1,026.7,000.0,036.4,029.8,23.9,-001.4,0007.93,0004.68,0004.43
2023-09-12 21:17:00,SystemResetWarning,0832.2,5.00,000.00,028.2,026.9,000.0,036.4,029.8,23.8,-001.4,0007.98,0004.70,0004.43
2023-09-12 21:18:00,SystemResetWarning,0832.2,5.00,000.00,028.2,027.1,000.0,036.5,029.9,23.8,-001.2,0008.12,0004.71,0004.41
2023-09-12 21:19:00,SystemResetWarning,0832.2,5.01,000.00,028.3,027.3,000.0,036.5,030.0,23.9,-000.9,0008.15,0004.70,0004.38
2023-09-12 21:20:00,SystemResetWarning,0832.1,5.00,000.00,028.3,026.4,000.0,036.4,029.9,24.1,-000.7,0008.11,0004.70,0004.37
2023-09-12 21:21:00,SystemResetWarning,0832.1,4.99,000.00,028.2,024.8,000.0,036.4,029.5,24.4,-000.3,0008.13,0004.71,0004.37
2023-09-12 21:22:00,SystemResetWarning,0832.1,5.00,000.00,028.1,024.2,000.0,036.3,029.4,24.8,0000.0,0008.13,0004.71,0004.37
2023-09-12 21:23:00,SystemResetWarning,0832.0,5.01,000.00,028.0,024.4,000.0,036.3,029.4,24.7,-000.0,0007.97,0004.70,0004.38
2023-09-12 21:24:00,SystemResetWarning,0832.0,5.01,000.00,028.0,024.8,000.0,036.3,029.4,24.2,-000.1,0007.68,0004.71,0004.39
2023-09-12 21:25:00,SystemResetWarning,0832.0,4.99,000.00,028.0,025.3,000.0,036.3,029.4,24.3,0000.2,0007.63,0004.71,0004.39
2023-09-12 21:26:00,SystemResetWarning,0832.0,5.01,000.00,028.0,025.7,000.0,036.3,029.5,24.2,0000.1,0008.00,0004.68,0004.40
2023-09-12 21:27:00,SystemResetWarning,0832.0,5.01,000.00,028.0,026.1,000.0,036.3,029.6,24.5,0000.4,0008.29,0004.67,0004.41
2023-09-12 21:28:00,SystemResetWarning,0832.0,4.99,000.00,028.0,026.4,000.0,036.3,029.7,25.4,0000.7,0008.34,0004.69,0004.40
2023-09-12 21:29:00,SystemResetWarning,0832.0,4.99,000.00,028.1,026.7,000.0,036.4,029.8,25.3,0000.6,0008.29,0004.68,0004.40
2023-09-12 21:30:00,SystemResetWarning,0832.1,5.01,000.00,028.1,027.0,000.0,036.4,029.8,25.1,0000.3,0008.20,0004.68,0004.41
2023-09-12 21:31:00,SystemResetWarning,0832.0,5.01,000.00,028.2,027.2,000.0,036.4,029.9,24.9,0000.4,0008.18,0004.68,0004.42
2023-09-12 21:32:00,SystemResetWarning,0832.1,5.00,000.00,028.2,027.4,000.0,036.5,030.0,24.2,0000.9,0008.18,0004.69,0004.43
2023-09-12 21:33:00,SystemResetWarning,0832.1,4.99,000.00,028.3,027.0,000.0,036.4,030.0,24.6,0001.6,0008.18,0004.70,0004.45
2023-09-12 21:34:00,SystemResetWarning,0832.1,4.99,000.00,028.2,025.3,000.0,036.4,029.6,24.4,0001.2,0008.35,0004.74,0004.47
2023-09-12 21:35:00,SystemResetWarning,0832.0,5.01,000.00,028.1,024.3,000.0,036.3,029.5,24.6,0001.2,0008.39,0004.76,0004.49
2023-09-12 21:36:00,SystemResetWarning,0832.0,5.01,000.00,028.1,024.4,000.0,036.3,029.4,24.1,0001.3,0008.59,0004.78,0004.51
2023-09-12 21:37:00,SystemResetWarning,0832.0,5.00,000.00,028.0,024.7,000.0,036.3,029.4,24.6,0001.1,0008.60,0004.81,0004.54
2023-09-12 21:38:00,SystemResetWarning,0832.1,5.01,000.00,028.0,025.2,000.0,036.3,029.4,23.9,0000.9,0007.94,0004.86,0004.56
2023-09-12 21:39:00,SystemResetWarning,0832.0,5.00,000.00,028.0,025.6,000.0,036.3,029.5,24.0,0001.1,0007.95,0004.88,0004.58
2023-09-12 21:40:00,SystemResetWarning,0832.1,4.99,000.00,028.0,026.0,000.0,036.3,029.6,23.1,0000.8,0007.90,0004.87,0004.59
2023-09-12 21:41:00,SystemResetWarning,0832.0,5.00,000.00,028.1,026.3,000.0,036.3,029.7,23.7,0001.5,0008.92,0004.88,0004.61
2023-09-12 21:42:00,SystemResetWarning,0832.0,5.02,000.00,028.1,026.7,000.0,036.4,029.8,24.4,0001.3,0009.82,0004.92,0004.63
2023-09-12 21:43:00,SystemResetWarning,0832.0,5.01,000.00,028.1,026.9,000.0,036.4,029.9,24.1,0001.0,0010.15,0004.95,0004.63
2023-09-12 21:44:00,SystemResetWarning,0832.0,4.99,000.00,028.2,027.2,000.0,036.4,029.9,24.0,0000.4,0010.29,0005.00,0004.65
2023-09-12 21:45:00,SystemResetWarning,0832.0,4.99,000.00,028.3,027.3,000.0,036.5,030.0,23.6,0000.4,0010.34,0005.04,0004.67
2023-09-12 21:46:00,SystemResetWarning,0832.0,5.00,000.00,028.3,026.7,000.0,036.4,029.9,23.6,0000.5,0010.49,0005.08,0004.69
2023-09-12 21:47:00,SystemResetWarning,0832.0,5.00,000.00,028.2,025.0,000.0,036.3,029.6,24.3,0000.7,0011.08,0005.11,0004.71
2023-09-12 21:48:00,SystemResetWarning,0832.0,5.01,000.00,028.1,024.2,000.0,036.3,029.4,24.2,0001.0,0011.01,0005.14,0004.74
2023-09-12 21:49:00,SystemResetWarning,0832.0,5.01,000.00,028.1,024.4,000.0,036.3,029.4,24.3,0000.9,0011.08,0005.18,0004.77
2023-09-12 21:50:00,SystemResetWarning,0832.0,4.99,000.00,028.0,024.8,000.0,036.3,029.4,24.4,0001.0,0011.20,0005.25,0004.82
2023-09-12 21:51:00,SystemResetWarning,0832.0,5.00,000.00,028.0,025.2,000.0,036.3,029.4,24.6,0001.3,0011.24,0005.29,0004.87
2023-09-12 21:52:00,SystemResetWarning,0832.0,5.00,000.00,028.0,025.6,000.0,036.3,029.5,24.5,0001.4,0011.10,0005.36,0004.92
2023-09-12 21:53:00,SystemResetWarning,0832.0,4.99,000.00,028.0,026.0,000.0,036.3,029.6,24.3,0001.8,0010.26,0005.38,0004.96
2023-09-12 21:54:00,SystemResetWarning,0831.9,5.01,000.00,028.0,026.4,000.0,036.3,029.7,24.3,0001.8,0009.90,0005.42,0004.99
2023-09-12 21:55:00,SystemResetWarning,0831.9,5.00,000.00,028.1,026.7,000.0,036.4,029.8,24.6,0001.8,0009.84,0005.42,0005.02
2023-09-12 21:56:00,SystemResetWarning,0831.9,4.99,000.00,028.1,026.9,000.0,036.4,029.9,24.5,0001.8,0009.75,0005.43,0005.04
2023-09-12 21:57:00,SystemResetWarning,0831.9,5.00,000.00,028.2,027.2,000.0,036.4,029.9,24.1,0001.9,0009.76,0005.45,0005.06
2023-09-12 21:58:00,SystemResetWarning,0831.9,5.01,000.00,028.3,027.3,000.0,036.4,030.0,24.0,0001.4,0009.14,0005.47,0005.08
2023-09-12 21:59:00,SystemResetWarning,0831.8,4.99,000.00,028.3,026.3,000.0,036.4,029.9,23.8,0000.9,0009.14,0005.47,0005.08
